Regional Weather Roundup
Issued by NWS Midland/Odessa, TX

Skip options and go directly to product.
Home | Oldest Version | Previous Version | Current Version | All | Text Only | Save Text | Print | Product List | Glossary Off

Skip product version selection by date and time.   

827
ASUS44 KMAF 221310
RWRMAF
MIDLAND AREA WEATHER ROUNDUP
NATIONAL WEATHER SERVICE MIDLAND TX
800 AM CDT FRI MAY 22 2015

...IN SOUTHWEST TEXAS AND SOUTHEAST NEW MEXICO...

CITY           SKY/WX    TMP DP  RH WIND       PRES   REMARKS
ALPINE         CLOUDY    56  56  98 NE5       30.19R VSB 1/4
ANDREWS        CLOUDY    55  55 100 E5        30.12R FOG
ARTESIA        CLOUDY    54  54 100 SE3       30.13R
BIG SPRING     CLOUDY    59  57  93 E3        30.12S
CARLSBAD       CLOUDY    56  53  90 CALM      30.11R
DRYDEN           N/A     67  65  93 S8        30.04R
FORT STOCKTON  FOG       57  57 100 NW5       30.10R VSB 1/4
GUAD PASS      CLOUDY    49  48  97 E12       30.16R
HOBBS          CLOUDY    54  54 100 CALM      30.13R
MARFA          CLOUDY   N/A N/A N/A SE6       30.15R
MIDLAND AIRPK  CLOUDY    59  59 100 NE3       30.10S FOG
MIDLAND INTL   LGT RAIN  59  58  96 NE6       30.10R FOG
ODESSA         LGT RAIN  59  57  93 NE6       30.11R FOG
PECOS          CLOUDY    56  55  96 NW6       30.10R FOG
PRESIDIO       FAIR      66  58  75 MISG      30.05R
SEMINOLE       CLOUDY    55  55  99 E5        30.12R FOG
SNYDER         CLOUDY    57  56  99 E5        30.12R FOG
WINK           CLOUDY    59  56  89 N3        30.08R FOG
$$
...OTHER STATIONS IN TEXAS...

CITY           SKY/WX    TMP DP  RH WIND       PRES   REMARKS
ABILENE        CLOUDY    59  58  96 SE9       30.12R
AMARILLO       CLOUDY    50  49  96 SE8       30.15R FOG
AUSTIN         FOG       64  64 100 NE5       30.10R VSB 1/4
BROWNSVILLE    FOG       76  75  97 S5        30.02S VSB 1/2
CORPUS CHRISTI PTSUNNY   77  75  93 NE5       30.02S
DALLAS FTW     DRIZZLE   59  58  96 E13       30.15F
DEL RIO        CLOUDY    68  66  93 SE12G22   30.02S FOG
EL PASO        PTSUNNY   59  52  77 N7        30.06R
HOUSTON INT    CLOUDY    66  64  93 NE12      30.13R
LUBBOCK        CLOUDY    53  52  96 E8        30.12R
SAN ANGELO     CLOUDY    62  60  93 E6        30.08R
SAN ANTONIO    DRZL/FOG  67  64  90 E7        30.09R VSB 1/4
WACO           CLOUDY    62  59  90 E7        30.14R
WICHITA FALLS  NOT AVBL
$$
...OTHER LOCATIONS IN NEW MEXICO...

CITY           SKY/WX    TMP DP  RH WIND       PRES   REMARKS
ALAMAGORDO     SUNNY     50  50 100 CALM      30.09R
ALBUQUERQUE    PTSUNNY   50  44  80 N3        30.12R
CANNON AFB     CLOUDY    50  50 100 CALM      30.13S
CLOVIS         CLOUDY    48  46  93 CALM      30.14R
HOLLOMAN AFB   SUNNY     51  51  99 CALM      30.07R
ROSWELL        CLOUDY    54  51  90 S5        30.11R
RUIDOSO        FOG       39  39 100 NW3       30.18R VSB<1/4
SANTA FE       CLOUDY    45  41  86 SE6       30.13R
TRUTH OR CONSE CLEAR     49  46  90 N5        30.08R
TUCUMCARI      NOT AVBL
$$

USA.gov is the U.S. government's official web portal to all federal, state and local government web resources and services.